Change the Weather History Date:

Sunday, September 29, 2013

  Actual Average Record
Temperature  
Mean Temperature 57 °F -  
Max Temperature 69 °F 61 °F 77 °F (2014)
Min Temperature 45 °F 43 °F 30 °F (2006)
Degree Days  
Heating Degree Days 8    
Growing Degree Days 7 (Base 50)    
Moisture  
Dew Point 54 °F    
Average Humidity 81    
Maximum Humidity 97    
Minimum Humidity 52    
Precipitation  
Precipitation 0.44 in - - ()
Sea Level Pressure  
Sea Level Pressure 29.96 in    
Wind  
Wind Speed 8 mph (WSW)    
Max Wind Speed 15 mph    
Max Gust Speed 22 mph    
Visibility 9 miles    
Events Rain    
Averages and records for this station are not official NWS values.
T = Trace of Precipitation, MM = Missing Value Source: NWS Daily Summary

Daily Weather History Graph

Daily Weather History Graph

Search for Another Location

Airport or City:

Trip Planner

Search our weather history database for the weather conditions in past years. The results will help you decide how hot, cold, wet, or windy it might be!

Date:

Astronomy

Sep. 29, 2013 Rise Set
Actual Time 7:29 AM EDT 7:17 PM EDT
Civil Twilight 7:00 AM EDT 7:46 PM EDT
Nautical Twilight 6:26 AM EDT 8:20 PM EDT
Astronomical Twilight 5:52 AM EDT 8:54 PM EDT
Moon 1:59 AM EDT 4:22 PM EDT
Length of Visible Light 12h 46m
Length of Day
11h 48m
Waning Crescent, 27% of the Moon is Illuminated
Sep 29
Waning Crescent
Oct 4
New
Oct 11
First Quarter
Oct 18
Full
Oct 26
Last Quarter

Hourly Weather History & Observations

Time (EDT) Temp. Dew Point Humidity Pressure Visibility Wind Dir Wind Speed Gust Speed Precip Events Conditions
12:14 AM 64.4 °F 54.5 °F 70% 29.97 in 10.0 mi South 11.5 mph 16.1 mph N/A   Clear
12:33 AM 64.0 °F 54.5 °F 71% 29.96 in 10.0 mi South 10.4 mph 16.1 mph N/A   Clear
12:53 AM 63.9 °F 54.7 °F 72% 29.96 in 10.0 mi South 9.2 mph 16.1 mph N/A   Clear
1:14 AM 63.7 °F 55.2 °F 74% 29.95 in 10.0 mi South 8.1 mph - N/A   Clear
1:33 AM 63.5 °F 55.6 °F 75% 29.94 in 10.0 mi South 10.4 mph - N/A   Clear
1:53 AM 63.7 °F 55.8 °F 75% 29.94 in 10.0 mi South 12.7 mph 16.1 mph N/A   Clear
2:14 AM 63.7 °F 56.3 °F 77% 29.93 in 10.0 mi South 11.5 mph - N/A   Clear
2:33 AM 63.9 °F 56.3 °F 76% 29.92 in 10.0 mi South 9.2 mph 17.3 mph N/A   Clear
2:53 AM 63.7 °F 56.3 °F 77% 29.92 in 10.0 mi South 10.4 mph - N/A   Clear
3:14 AM 64.2 °F 56.1 °F 75% 29.91 in 10.0 mi South 11.5 mph 18.4 mph N/A   Clear
3:33 AM 64.4 °F 55.9 °F 74% 29.90 in 10.0 mi South 10.4 mph 17.3 mph N/A   Clear
3:53 AM 64.6 °F 55.8 °F 73% 29.89 in 10.0 mi SSW 13.8 mph 19.6 mph N/A   Clear
4:14 AM 64.8 °F 55.9 °F 73% 29.89 in 10.0 mi SSW 15.0 mph 18.4 mph N/A   Mostly Cloudy
4:33 AM 65.3 °F 56.3 °F 73% 29.88 in 10.0 mi SSW 15.0 mph - N/A   Overcast
4:53 AM 65.3 °F 56.3 °F 73% 29.88 in 10.0 mi SSW 12.7 mph 17.3 mph N/A   Mostly Cloudy
5:14 AM 65.3 °F 56.5 °F 73% 29.88 in 10.0 mi SSW 11.5 mph - N/A   Mostly Cloudy
5:33 AM 65.3 °F 56.5 °F 73% 29.88 in 10.0 mi SSW 10.4 mph - N/A   Mostly Cloudy
5:54 AM 65.3 °F 56.5 °F 73% 29.88 in 10.0 mi SSW 8.1 mph - N/A   Overcast
6:14 AM 64.9 °F 56.7 °F 74% 29.89 in 10.0 mi SSW 6.9 mph - N/A   Overcast
6:33 AM 64.8 °F 56.5 °F 74% 29.89 in 10.0 mi SSW 15.0 mph 18.4 mph N/A Rain Rain
6:53 AM 63.3 °F 57.4 °F 81% 29.90 in 10.0 mi SW 9.2 mph - N/A Rain Light Rain
7:14 AM 61.2 °F 58.6 °F 91% 29.92 in 10.0 mi WSW 10.4 mph - 0.01 in Rain Light Rain
7:33 AM 60.8 °F 59.2 °F 94% 29.92 in 4.0 mi WSW 10.4 mph - 0.14 in Rain Heavy Rain
7:53 AM 60.3 °F 59.2 °F 96% 29.93 in 5.0 mi WSW 4.6 mph - 0.21 in Rain Rain
8:14 AM 60.1 °F 59.2 °F 97% 29.93 in 4.0 mi WSW 3.5 mph - 0.03 in Rain Rain
8:33 AM 60.3 °F 59.4 °F 97% 29.93 in 4.0 mi WSW 4.6 mph - 0.06 in Rain Rain
8:54 AM 60.1 °F 59.4 °F 97% 29.94 in 4.0 mi West 4.6 mph - 0.10 in Rain Rain
9:13 AM 59.9 °F 59.0 °F 97% 29.94 in 4.0 mi WNW 6.9 mph - 0.04 in Rain Rain
9:33 AM 58.5 °F 56.5 °F 93% 29.96 in 4.0 mi NNW 13.8 mph 21.9 mph 0.11 in Rain Heavy Rain
9:54 AM 56.8 °F 55.4 °F 95% 29.96 in 10.0 mi NNW 4.6 mph - 0.13 in Rain Light Rain
10:13 AM 57.2 °F 55.0 °F 92% 29.96 in 10.0 mi NW 5.8 mph - N/A   Overcast
10:33 AM 58.1 °F 55.6 °F 91% 29.96 in 10.0 mi NNW 5.8 mph - N/A   Overcast
10:54 AM 58.1 °F 55.8 °F 92% 29.97 in 10.0 mi NNW 5.8 mph - N/A   Overcast
11:13 AM 58.5 °F 56.3 °F 93% 29.98 in 10.0 mi NW 4.6 mph - N/A Rain Light Rain
11:33 AM 59.0 °F 56.7 °F 92% 29.98 in 10.0 mi NW 5.8 mph - N/A   Overcast
11:54 AM 59.4 °F 56.7 °F 91% 29.98 in 10.0 mi NW 5.8 mph - N/A   Overcast
12:13 PM 60.1 °F 56.7 °F 88% 29.98 in 10.0 mi NW 5.8 mph - N/A   Overcast
12:33 PM 59.9 °F 56.3 °F 88% 29.98 in 10.0 mi NW 3.5 mph - N/A   Overcast
12:54 PM 61.7 °F 55.6 °F 80% 29.98 in 10.0 mi NW 6.9 mph - N/A   Overcast
1:13 PM 63.1 °F 55.6 °F 76% 29.98 in 10.0 mi NNW 5.8 mph - N/A   Overcast
1:33 PM 64.2 °F 54.1 °F 70% 29.98 in 10.0 mi NNW 5.8 mph - N/A   Overcast
1:54 PM 65.7 °F 53.6 °F 65% 29.98 in 10.0 mi NNW 4.6 mph - N/A   Overcast
2:13 PM 67.5 °F 51.1 °F 56% 29.98 in 10.0 mi NNW 8.1 mph - N/A   Scattered Clouds
2:33 PM 68.0 °F 51.6 °F 56% 29.98 in 10.0 mi NW 4.6 mph - N/A   Scattered Clouds
2:54 PM 68.4 °F 51.3 °F 54% 29.98 in 10.0 mi NNW 3.5 mph - N/A   Clear
3:13 PM 69.1 °F 50.7 °F 52% 29.98 in 10.0 mi North 3.5 mph - N/A   Mostly Cloudy
3:33 PM 66.2 °F 55.0 °F 67% 29.98 in 10.0 mi ENE 10.4 mph - N/A   Mostly Cloudy
3:54 PM 64.9 °F 54.9 °F 70% 29.98 in 10.0 mi East 9.2 mph - N/A   Mostly Cloudy
4:13 PM 64.9 °F 54.9 °F 70% 29.98 in 10.0 mi ENE 9.2 mph - N/A   Scattered Clouds
4:33 PM 63.5 °F 55.6 °F 75% 29.98 in 10.0 mi ENE 9.2 mph - N/A   Clear
4:54 PM 63.3 °F 54.5 °F 73% 29.99 in 10.0 mi East 9.2 mph - N/A   Clear
5:13 PM 62.6 °F 53.8 °F 73% 29.99 in 10.0 mi East 8.1 mph - N/A   Clear
5:34 PM 61.7 °F 53.1 °F 73% 29.98 in 10.0 mi East 8.1 mph - N/A   Clear
5:54 PM 61.2 °F 52.9 °F 74% 29.98 in 10.0 mi East 8.1 mph - N/A   Clear
6:13 PM 60.8 °F 52.7 °F 75% 29.99 in 10.0 mi ENE 6.9 mph - N/A   Clear
6:33 PM 60.1 °F 52.7 °F 77% 29.99 in 10.0 mi ESE 5.8 mph - N/A   Clear
6:54 PM 59.5 °F 52.7 °F 78% 29.99 in 10.0 mi East 4.6 mph - N/A   Clear
7:13 PM 59.2 °F 52.7 °F 79% 29.99 in 10.0 mi ESE 3.5 mph - N/A   Clear
7:33 PM 57.7 °F 52.5 °F 83% 29.99 in 10.0 mi Calm Calm - N/A   Clear
7:54 PM 55.4 °F 51.6 °F 87% 30.00 in 10.0 mi Calm Calm - N/A   Clear
8:13 PM 53.6 °F 50.9 °F 91% 30.00 in 10.0 mi SW 3.5 mph - N/A   Clear
8:33 PM 51.3 °F 49.1 °F 92% 30.01 in 10.0 mi SW 4.6 mph - N/A   Clear
8:53 PM 49.3 °F 48.4 °F 97% 30.01 in 10.0 mi SW 3.5 mph - N/A   Clear
9:13 PM 50.4 °F 49.1 °F 95% 30.01 in 10.0 mi Calm Calm - N/A   Clear
9:34 PM 47.8 °F 46.9 °F 97% 30.02 in 10.0 mi WSW 4.6 mph - N/A   Clear
9:53 PM 49.1 °F 48.2 °F 97% 30.01 in 10.0 mi Calm Calm - N/A   Clear
10:13 PM 46.9 °F 45.9 °F 96% 30.01 in 10.0 mi Calm Calm - N/A   Clear
10:34 PM 47.5 °F 46.2 °F 95% 30.01 in 10.0 mi West 3.5 mph - N/A   Clear
10:53 PM 46.9 °F 45.7 °F 95% 30.01 in 10.0 mi Calm Calm - N/A   Mostly Cloudy
11:13 PM 46.4 °F 45.1 °F 95% 30.01 in 10.0 mi Calm Calm - N/A   Scattered Clouds
11:34 PM 45.5 °F 43.7 °F 93% 30.01 in 10.0 mi Calm Calm - N/A   Clear
11:53 PM 45.3 °F 43.5 °F 93% 30.01 in 2.5 mi Calm Calm - N/A   Scattered Clouds